,,Stat5,,Stat1,,Stat2,,Stat3,,Stat4,,Wind1,,Wind1,
time,status,PA1M_AVG,status,PR1M_SUM,status,RH1M_AVG,status,SR1M_AVG,status,TA1M_AVG,status,W1dAve1m,status,W1sAve1m,
2001-02-01, 00:00:00,VALID,916.502,VALID,0,VALID,97.9136,VALID,0,VALID,18.5927,VALID,195,VALID,0.415707,
2001-02-01, 00:01:00,VALID,916.515,VALID,0,VALID,97.8156,VALID,-0.0339617,VALID,18.5592,VALID,176,VALID,0.40625,
2001-02-01, 00:02:00,VALID,916.511,VALID,0,VALID,97.8385,VALID,-0.0169808,VALID,18.5666,VALID,215,VALID,0,
2001-02-01, 00:03:00,VALID,916.514,VALID,0,VALID,97.8284,VALID,0,VALID,18.5634,VALID,216,VALID,0,
2001-02-01, 00:04:00,VALID,916.507,VALID,0,VALID,97.7635,VALID,-0.0169808,VALID,18.5601,VALID,246,VALID,0,
2001-02-01, 00:05:00,VALID,916.514,VALID,0,VALID,97.794,VALID,-0.0169808,VALID,18.5631,VALID,246,VALID,0,
2001-02-01, 00:06:00,VALID,916.502,VALID,0,VALID,97.7482,VALID,-0.0169808,VALID,18.5567,VALID,246,VALID,0,
2001-02-01, 00:07:00,VALID,916.488,VALID,0,VALID,97.6859,VALID,-0.0169808,VALID,18.5567,VALID,246,VALID,0,
2001-02-01, 00:08:00,VALID,916.49,VALID,0,VALID,97.6529,VALID,-0.0679233,VALID,18.547,VALID,249,VALID,0,
2001-02-01, 00:09:00,VALID,916.467,VALID,0,VALID,97.6096,VALID,-0.0339617,VALID,18.5502,VALID,248,VALID,0,
2001-02-01, 00:10:00,VALID,916.456,VALID,0,VALID,97.5867,VALID,-0.0169808,VALID,18.5599,VALID,248,VALID,0,
2001-02-01, 00:11:00,VALID,916.445,VALID,0,VALID,97.5422,VALID,-0.0339617,VALID,18.5537,VALID,248,VALID,0,
2001-02-01, 00:12:00,VALID,916.439,VALID,0,VALID,97.5766,VALID,0,VALID,18.5597,VALID,248,VALID,0,
2001-02-01, 00:13:00,VALID,916.416,VALID,0,VALID,97.5779,VALID,0,VALID,18.5601,VALID,248,VALID,0,
2001-02-01, 00:14:01,VALID,916.394,VALID,0,VALID,97.616,VALID,0.0169808,VALID,18.553,VALID,245,VALID,0,
2001-02-01, 00:15:00,VALID,916.374,VALID,0,VALID,97.6046,VALID,0,VALID,18.5597,VALID,243,VALID,0,
2001-02-01, 00:16:00,VALID,916.362,VALID,0,VALID,97.5804,VALID,-0.0169808,VALID,18.5534,VALID,243,VALID,0,
2001-02-01, 00:17:00,VALID,916.341,VALID,0,VALID,97.5651,VALID,-0.0169808,VALID,18.5472,VALID,253,VALID,0,
2001-02-01, 00:18:00,VALID,916.331,VALID,0,VALID,97.5728,VALID,0,VALID,18.5271,VALID,294,VALID,0,
2001-02-01, 00:19:00,VALID,916.318,VALID,0,VALID,97.6096,VALID,0,VALID,18.5179,VALID,303,VALID,0,
2001-02-01, 00:20:00,VALID,916.3,VALID,0,VALID,97.7813,VALID,-0.0169808,VALID,18.5313,VALID,320,VALID,0,
2001-02-01, 00:21:00,VALID,916.29,VALID,0,VALID,97.9186,VALID,0,VALID,18.5407,VALID,320,VALID,0,
2001-02-01, 00:22:01,VALID,916.274,VALID,0,VALID,98.0255,VALID,0,VALID,18.5246,VALID,320,VALID,0,
2001-02-01, 00:23:00,VALID,916.267,VALID,0,VALID,98.1272,VALID,-0.0169808,VALID,18.5281,VALID,320,VALID,0,
2001-02-01, 00:24:00,VALID,916.255,VALID,0,VALID,98.1933,VALID,-0.0169808,VALID,18.508,VALID,320,VALID,0,
2001-02-01, 00:25:00,VALID,916.251,VALID,0,VALID,98.2505,VALID,-0.0169808,VALID,18.5048,VALID,320,VALID,0,
2001-02-01, 00:26:01,VALID,916.241,VALID,0,VALID,98.2976,VALID,0,VALID,18.508,VALID,320,VALID,0,
2001-02-01, 00:27:00,VALID,916.229,VALID,0,VALID,98.3179,VALID,0,VALID,18.502,VALID,320,VALID,0,
2001-02-01, 00:28:00,VALID,916.212,VALID,0,VALID,98.3243,VALID,-0.0169808,VALID,18.4759,VALID,320,VALID,0,
2001-02-01, 00:29:00,VALID,916.199,VALID,0,VALID,98.3408,VALID,0,VALID,18.4466,VALID,320,VALID,0,
2001-02-01, 00:30:01,VALID,916.186,VALID,0,VALID,98.3968,VALID,0,VALID,18.4404,VALID,320,VALID,0,
2001-02-01, 00:31:00,VALID,916.168,VALID,0,VALID,98.4311,VALID,-0.0169808,VALID,18.4309,VALID,320,VALID,0,
2001-02-01, 00:32:00,VALID,916.163,VALID,0,VALID,98.468,VALID,0,VALID,18.421,VALID,281,VALID,0,
2001-02-01, 00:33:00,VALID,916.146,VALID,0,VALID,98.4934,VALID,0,VALID,18.4146,VALID,274,VALID,0,
2001-02-01, 00:34:00,VALID,916.131,VALID,0,VALID,98.529,VALID,0,VALID,18.4118,VALID,252,VALID,0,
2001-02-01, 00:35:00,VALID,916.121,VALID,0,VALID,98.5379,VALID,0,VALID,18.4053,VALID,178,VALID,0,
2001-02-01, 00:36:00,VALID,916.113,VALID,0,VALID,98.5303,VALID,-0.0169808,VALID,18.3889,VALID,168,VALID,0,
2001-02-01, 00:37:00,VALID,916.104,VALID,0,VALID,98.5392,VALID,0,VALID,18.359,VALID,168,VALID,0,
2001-02-01, 00:38:01,VALID,916.102,VALID,0,VALID,98.5811,VALID,0.0679233,VALID,18.3594,VALID,168,VALID,0,
2001-02-01, 00:39:00,VALID,916.101,VALID,0,VALID,98.6396,VALID,0.0509425,VALID,18.3654,VALID,168,VALID,0,
2001-02-01, 00:40:00,VALID,916.083,VALID,0,VALID,98.6892,VALID,0,VALID,18.362,VALID,177,VALID,0,
2001-02-01, 00:41:00,VALID,916.081,VALID,0,VALID,98.6994,VALID,0.0509425,VALID,18.3691,VALID,180,VALID,0,
2001-02-01, 00:42:00,VALID,916.052,VALID,0,VALID,98.6981,VALID,0.0509425,VALID,18.3557,VALID,182,VALID,0,
2001-02-01, 00:43:00,VALID,916.051,VALID,0,VALID,98.7121,VALID,0.0339617,VALID,18.3502,VALID,196,VALID,0,
2001-02-01, 00:44:00,VALID,916.031,VALID,0,VALID,98.7185,VALID,0.0339617,VALID,18.3463,VALID,201,VALID,0,
2001-02-01, 00:45:00,VALID,916.032,VALID,0,VALID,98.7312,VALID,0.0509425,VALID,18.3368,VALID,200,VALID,0,
2001-02-01, 00:46:01,VALID,916.022,VALID,0,VALID,98.763,VALID,0.0679233,VALID,18.3366,VALID,205,VALID,0,
2001-02-01, 00:47:00,VALID,916.01,VALID,0,VALID,98.7655,VALID,0.0169808,VALID,18.34,VALID,206,VALID,0,
2001-02-01, 00:48:00,VALID,915.995,VALID,0,VALID,98.7744,VALID,0.0169808,VALID,18.3363,VALID,212,VALID,0,
2001-02-01, 00:49:00,VALID,915.988,VALID,0,VALID,98.7134,VALID,0,VALID,18.3237,VALID,218,VALID,0,
2001-02-01, 00:50:01,VALID,915.988,VALID,0,VALID,98.6765,VALID,0.0339617,VALID,18.3135,VALID,225,VALID,0,
2001-02-01, 00:51:00,VALID,915.964,VALID,0,VALID,98.6091,VALID,0.0169808,VALID,18.2948,VALID,225,VALID,0.50549,
2001-02-01, 00:52:00,VALID,915.954,VALID,0,VALID,98.5659,VALID,-0.0849042,VALID,18.2925,VALID,221,VALID,1.05527,
2001-02-01, 00:53:00,VALID,915.959,VALID,0,VALID,98.5519,VALID,-0.0849042,VALID,18.3061,VALID,221,VALID,1.15765,
2001-02-01, 00:54:01,VALID,915.957,VALID,0,VALID,98.557,VALID,-0.0849042,VALID,18.2997,VALID,224,VALID,0.960526,
2001-02-01, 00:55:00,VALID,915.959,VALID,0,VALID,98.5239,VALID,-0.101885,VALID,18.2794,VALID,219,VALID,0.677484,
2001-02-01, 00:56:00,VALID,915.952,VALID,0,VALID,98.543,VALID,-0.101885,VALID,18.2997,VALID,230,VALID,0.488076,
2001-02-01, 00:57:00,VALID,915.943,VALID,0,VALID,98.5684,VALID,-0.0679233,VALID,18.3091,VALID,234,VALID,0.264223,
2001-02-01, 00:58:00,VALID,915.941,VALID,0,VALID,98.5875,VALID,-0.0849042,VALID,18.3059,VALID,228,VALID,0.300195,
2001-02-01, 00:59:00,VALID,915.936,VALID,0,VALID,98.6142,VALID,-0.0849042,VALID,18.3022,VALID,230,VALID,0.400127,
2001-02-01, 01:00:00,VALID,915.923,VALID,0,VALID,98.6333,VALID,-0.0509425,VALID,18.3096,VALID,230,VALID,0.0949219,
2001-02-01, 01:01:00,VALID,915.902,VALID,0,VALID,98.6765,VALID,-0.0679233,VALID,18.3027,VALID,206,VALID,0.36859,
2001-02-01, 01:02:01,VALID,915.894,VALID,0,VALID,98.7045,VALID,-0.0849042,VALID,18.2962,VALID,209,VALID,0,
2001-02-01, 01:03:01,VALID,915.893,VALID,0,VALID,98.7388,VALID,-0.0509425,VALID,18.2861,VALID,209,VALID,0,
2001-02-01, 01:04:00,VALID,915.894,VALID,0,VALID,98.7554,VALID,-0.0679233,VALID,18.2895,VALID,186,VALID,0,
2001-02-01, 01:05:01,VALID,915.888,VALID,0,VALID,98.7884,VALID,-0.0509425,VALID,18.2833,VALID,206,VALID,0.473357,
2001-02-01, 01:06:00,VALID,915.893,VALID,0,VALID,98.8088,VALID,-0.0509425,VALID,18.2801,VALID,214,VALID,0.519727,
2001-02-01, 01:07:00,VALID,915.865,VALID,0,VALID,98.8266,VALID,-0.0679233,VALID,18.2738,VALID,214,VALID,0.712204,
2001-02-01, 01:08:00,VALID,915.855,VALID,0,VALID,98.8647,VALID,-0.101885,VALID,18.2575,VALID,221,VALID,0.735547,
2001-02-01, 01:09:00,VALID,915.853,VALID,0,VALID,98.8787,VALID,-0.0679233,VALID,18.2475,VALID,209,VALID,0.744391,
2001-02-01, 01:10:01,VALID,915.837,VALID,0,VALID,98.9016,VALID,-0.0679233,VALID,18.2408,VALID,220,VALID,1.15111,
2001-02-01, 01:11:01,VALID,915.818,VALID,0,VALID,98.9105,VALID,-0.0169808,VALID,18.2344,VALID,218,VALID,1.23978,
2001-02-01, 01:12:00,VALID,915.8,VALID,0,VALID,98.9181,VALID,-0.0509425,VALID,18.2113,VALID,211,VALID,0.947368,
2001-02-01, 01:13:01,VALID,915.79,VALID,0,VALID,98.9359,VALID,-0.0339617,VALID,18.2185,VALID,207,VALID,0.91266,
2001-02-01, 01:14:01,VALID,915.772,VALID,0,VALID,98.9563,VALID,-0.0509425,VALID,18.2155,VALID,212,VALID,0.575391,
2001-02-01, 01:15:00,VALID,915.761,VALID,0,VALID,98.9703,VALID,-0.0679233,VALID,18.2125,VALID,206,VALID,0.638725,
2001-02-01, 01:16:01,VALID,915.76,VALID,0,VALID,98.9842,VALID,-0.0339617,VALID,18.2023,VALID,203,VALID,0.786914,
2001-02-01, 01:17:01,VALID,915.766,VALID,0,VALID,98.9868,VALID,-0.0679233,VALID,18.2058,VALID,191,VALID,0.846354,
2001-02-01, 01:18:01,VALID,915.762,VALID,0,VALID,98.9741,VALID,-0.101885,VALID,18.1899,VALID,185,VALID,1.0919,
2001-02-01, 01:19:01,VALID,915.748,VALID,0,VALID,98.9601,VALID,-0.0679233,VALID,18.1866,VALID,173,VALID,1.07893,
2001-02-01, 01:20:00,VALID,915.738,VALID,0,VALID,98.941,VALID,-0.101885,VALID,18.1735,VALID,171,VALID,0.957854,
2001-02-01, 01:21:01,VALID,915.729,VALID,0,VALID,98.9334,VALID,-0.101885,VALID,18.1638,VALID,177,VALID,1.125,
2001-02-01, 01:22:01,VALID,915.714,VALID,0,VALID,98.9346,VALID,0,VALID,18.1659,VALID,182,VALID,0.864648,
2001-02-01, 01:23:00,VALID,915.727,VALID,0,VALID,98.9321,VALID,0,VALID,18.1758,VALID,196,VALID,0.635135,
2001-02-01, 01:24:00,VALID,915.725,VALID,0,VALID,98.9385,VALID,0.0169808,VALID,18.176,VALID,203,VALID,1.1252,
2001-02-01, 01:25:01,VALID,915.721,VALID,0,VALID,98.9436,VALID,0,VALID,18.1493,VALID,191,VALID,1.02123,
2001-02-01, 01:26:01,VALID,915.7,VALID,0,VALID,98.9575,VALID,0,VALID,18.1631,VALID,195,VALID,1.03104,
2001-02-01, 01:27:01,VALID,915.671,VALID,0,VALID,98.9652,VALID,0.0679233,VALID,18.1396,VALID,196,VALID,0.989383,
2001-02-01, 01:28:01,VALID,915.649,VALID,0,VALID,98.9906,VALID,0.0679233,VALID,18.1396,VALID,217,VALID,0.960115,
2001-02-01, 01:29:01,VALID,915.634,VALID,0,VALID,99.0186,VALID,0.0339617,VALID,18.1361,VALID,215,VALID,0.841747,
2001-02-01, 01:30:01,VALID,915.608,VALID,0,VALID,99.0415,VALID,0.0169808,VALID,18.1465,VALID,200,VALID,0.933203,
2001-02-01, 01:31:01,VALID,915.6,VALID,0,VALID,99.0898,VALID,0.0169808,VALID,18.146,VALID,213,VALID,0.865498,
2001-02-01, 01:32:01,VALID,915.594,VALID,0,VALID,99.1406,VALID,0.0509425,VALID,18.1753,VALID,201,VALID,0.857422,
2001-02-01, 01:33:01,VALID,915.588,VALID,0,VALID,99.161,VALID,0.0169808,VALID,18.1883,VALID,220,VALID,0.928686,
2001-02-01, 01:34:01,VALID,915.585,VALID,0,VALID,99.1712,VALID,0.0169808,VALID,18.1982,VALID,216,VALID,0.838199,
2001-02-01, 01:35:01,VALID,915.587,VALID,0,VALID,99.1826,VALID,0,VALID,18.1977,VALID,226,VALID,0.624399,
2001-02-01, 01:36:01,VALID,915.581,VALID,0,VALID,99.2144,VALID,0.0679233,VALID,18.2109,VALID,215,VALID,0.852796,
2001-02-01, 01:37:01,VALID,915.598,VALID,0,VALID,99.2386,VALID,-0.0509425,VALID,18.2314,VALID,204,VALID,1.04968,
2001-02-01, 01:38:01,VALID,915.594,VALID,0,VALID,99.2564,VALID,-0.0509425,VALID,18.2408,VALID,210,VALID,0.713867,
2001-02-01, 01:39:01,VALID,915.591,VALID,0,VALID,99.2678,VALID,-0.0339617,VALID,18.2575,VALID,198,VALID,0.649071,
2001-02-01, 01:40:01,VALID,915.591,VALID,0,VALID,99.264,VALID,-0.0679233,VALID,18.2503,VALID,208,VALID,0.15625,
2001-02-01, 01:41:01,VALID,915.592,VALID,0,VALID,99.2653,VALID,-0.0339617,VALID,18.2411,VALID,195,VALID,0.136418,
2001-02-01, 01:42:01,VALID,915.595,VALID,0,VALID,99.2831,VALID,-0.0509425,VALID,18.2505,VALID,202,VALID,0.226768,
2001-02-01, 01:43:00,VALID,915.591,VALID,0,VALID,99.2793,VALID,-0.0339617,VALID,18.2473,VALID,182,VALID,0.236979,
2001-02-01, 01:44:00,VALID,915.586,VALID,0,VALID,99.3085,VALID,-0.0169808,VALID,18.2438,VALID,175,VALID,0.329153,
2001-02-01, 01:45:00,VALID,915.583,VALID,0,VALID,99.325,VALID,-0.0339617,VALID,18.26,VALID,161,VALID,0.685497,
2001-02-01, 01:46:00,VALID,915.571,VALID,0,VALID,99.3276,VALID,-0.0339617,VALID,18.2662,VALID,187,VALID,0.501758,
2001-02-01, 01:47:00,VALID,915.575,VALID,0,VALID,99.3441,VALID,-0.0339617,VALID,18.2828,VALID,210,VALID,0.596706,
2001-02-01, 01:48:00,VALID,915.577,VALID,0,VALID,99.3517,VALID,-0.0169808,VALID,18.2897,VALID,230,VALID,0.367188,
2001-02-01, 01:49:00,VALID,915.573,VALID,0,VALID,99.3644,VALID,-0.0169808,VALID,18.2992,VALID,231,VALID,0.26262,
2001-02-01, 01:50:00,VALID,915.561,VALID,0,VALID,99.3581,VALID,0,VALID,18.2759,VALID,219,VALID,0.517064,
2001-02-01, 01:51:00,VALID,915.553,VALID,0,VALID,99.3644,VALID,-0.0339617,VALID,18.2789,VALID,203,VALID,0.23137,
2001-02-01, 01:52:00,VALID,915.552,VALID,0,VALID,99.3797,VALID,-0.0339617,VALID,18.2824,VALID,195,VALID,0,
2001-02-01, 01:53:00,VALID,915.547,VALID,0,VALID,99.3886,VALID,-0.0339617,VALID,18.293,VALID,179,VALID,0,
2001-02-01, 01:54:00,VALID,915.562,VALID,0,VALID,99.3823,VALID,-0.0339617,VALID,18.2893,VALID,175,VALID,0,
2001-02-01, 01:55:00,VALID,915.562,VALID,0,VALID,99.3861,VALID,0,VALID,18.2798,VALID,175,VALID,0,
2001-02-01, 01:56:00,VALID,915.567,VALID,0,VALID,99.3912,VALID,-0.0339617,VALID,18.2796,VALID,175,VALID,0,
2001-02-01, 01:57:00,VALID,915.575,VALID,0,VALID,99.3975,VALID,-0.0169808,VALID,18.2794,VALID,175,VALID,0,
2001-02-01, 01:58:00,VALID,915.565,VALID,0,VALID,99.3924,VALID,-0.0169808,VALID,18.2729,VALID,175,VALID,0,
2001-02-01, 01:59:00,VALID,915.565,VALID,0,VALID,99.3848,VALID,0,VALID,18.2563,VALID,175,VALID,0,
2001-02-01, 02:00:00,VALID,915.554,VALID,0,VALID,99.3873,VALID,-0.0169808,VALID,18.2538,VALID,175,VALID,0,
2001-02-01, 02:01:00,VALID,915.549,VALID,0,VALID,99.3873,VALID,-0.0339617,VALID,18.2372,VALID,175,VALID,0,
2001-02-01, 02:02:00,VALID,915.531,VALID,0,VALID,99.3861,VALID,-0.0169808,VALID,18.2376,VALID,169,VALID,0,
2001-02-01, 02:03:00,VALID,915.527,VALID,0,VALID,99.3835,VALID,-0.0339617,VALID,18.2215,VALID,142,VALID,0,
2001-02-01, 02:04:00,VALID,915.512,VALID,0,VALID,99.3619,VALID,-0.0509425,VALID,18.2023,VALID,115,VALID,0,
2001-02-01, 02:05:00,VALID,915.514,VALID,0,VALID,99.3416,VALID,-0.0509425,VALID,18.1603,VALID,114,VALID,0,
2001-02-01, 02:06:00,VALID,915.497,VALID,0,VALID,99.3327,VALID,-0.101885,VALID,18.1315,VALID,117,VALID,0,
2001-02-01, 02:07:00,VALID,915.494,VALID,0,VALID,99.3288,VALID,-0.0169808,VALID,18.1117,VALID,123,VALID,0,
2001-02-01, 02:08:00,VALID,915.484,VALID,0,VALID,99.3174,VALID,-0.0339617,VALID,18.0895,VALID,118,VALID,0,
2001-02-01, 02:09:00,VALID,915.48,VALID,0,VALID,99.2983,VALID,0,VALID,18.0602,VALID,112,VALID,0,
2001-02-01, 02:10:00,VALID,915.477,VALID,0,VALID,99.2996,VALID,-0.0169808,VALID,18.0445,VALID,111,VALID,0,
2001-02-01, 02:11:00,VALID,915.476,VALID,0,VALID,99.306,VALID,-0.0509425,VALID,18.0309,VALID,118,VALID,0,
2001-02-01, 02:12:00,VALID,915.472,VALID,0,VALID,99.3123,VALID,-0.0339617,VALID,18.0314,VALID,122,VALID,0,
2001-02-01, 02:13:00,VALID,915.479,VALID,0,VALID,99.3123,VALID,-0.0169808,VALID,18.0113,VALID,137,VALID,0,
2001-02-01, 02:14:00,VALID,915.478,VALID,0,VALID,99.3098,VALID,-0.0169808,VALID,18.0083,VALID,140,VALID,0,
2001-02-01, 02:15:00,VALID,915.487,VALID,0,VALID,99.3199,VALID,-0.0339617,VALID,18.0185,VALID,140,VALID,0,
2001-02-01, 02:16:00,VALID,915.48,VALID,0,VALID,99.3314,VALID,-0.0169808,VALID,18.0083,VALID,140,VALID,0,
2001-02-01, 02:17:00,VALID,915.484,VALID,0,VALID,99.3352,VALID,-0.0339617,VALID,18.0217,VALID,140,VALID,0,
2001-02-01, 02:18:00,VALID,915.484,VALID,0,VALID,99.3403,VALID,0,VALID,18.0051,VALID,141,VALID,0,
2001-02-01, 02:19:00,VALID,915.469,VALID,0,VALID,99.3377,VALID,-0.0339617,VALID,17.9883,VALID,148,VALID,0,
2001-02-01, 02:20:00,VALID,915.481,VALID,0,VALID,99.3403,VALID,-0.0339617,VALID,17.9919,VALID,150,VALID,0,
2001-02-01, 02:21:00,VALID,915.457,VALID,0,VALID,99.3556,VALID,0,VALID,17.9952,VALID,154,VALID,0,
2001-02-01, 02:22:00,VALID,915.442,VALID,0,VALID,99.3492,VALID,0.0679233,VALID,17.9841,VALID,160,VALID,0,
2001-02-01, 02:23:00,VALID,915.416,VALID,0,VALID,99.3543,VALID,0.101885,VALID,17.9878,VALID,187,VALID,0,
2001-02-01, 02:24:00,VALID,915.387,VALID,0,VALID,99.3708,VALID,0.0849042,VALID,17.9744,VALID,214,VALID,0,
2001-02-01, 02:25:00,VALID,915.366,VALID,0,VALID,99.367,VALID,0.0679233,VALID,17.9747,VALID,204,VALID,0,
2001-02-01, 02:26:00,VALID,915.345,VALID,0,VALID,99.367,VALID,0.0509425,VALID,17.9684,VALID,209,VALID,0,
2001-02-01, 02:27:00,VALID,915.333,VALID,0,VALID,99.3339,VALID,0.0339617,VALID,17.9329,VALID,220,VALID,0,
2001-02-01, 02:28:00,VALID,915.311,VALID,0,VALID,99.3377,VALID,0.0509425,VALID,17.9168,VALID,215,VALID,0,
2001-02-01, 02:29:00,VALID,915.296,VALID,0,VALID,99.3492,VALID,0.0849042,VALID,17.9103,VALID,209,VALID,0,
2001-02-01, 02:30:00,VALID,915.288,VALID,0,VALID,99.3377,VALID,0.0849042,VALID,17.9105,VALID,218,VALID,0,
2001-02-01, 02:31:00,VALID,915.279,VALID,0,VALID,99.3377,VALID,0.0339617,VALID,17.9105,VALID,228,VALID,0,
2001-02-01, 02:32:00,VALID,915.281,VALID,0,VALID,99.3492,VALID,0.0509425,VALID,17.9069,VALID,215,VALID,0,
2001-02-01, 02:33:00,VALID,915.271,VALID,0,VALID,99.3428,VALID,0.0509425,VALID,17.9108,VALID,204,VALID,0,
2001-02-01, 02:34:00,VALID,915.276,VALID,0,VALID,99.3594,VALID,0,VALID,17.9075,VALID,202,VALID,0,
2001-02-01, 02:35:00,VALID,915.278,VALID,0,VALID,99.3606,VALID,0.0169808,VALID,17.9209,VALID,193,VALID,0,
2001-02-01, 02:36:00,VALID,915.262,VALID,0,VALID,99.3377,VALID,0.0509425,VALID,17.9142,VALID,188,VALID,0,
2001-02-01, 02:37:00,VALID,915.254,VALID,0,VALID,99.3276,VALID,-0.0509425,VALID,17.9054,VALID,180,VALID,0,
2001-02-01, 02:38:00,VALID,915.242,VALID,0,VALID,99.3174,VALID,-0.101885,VALID,17.9059,VALID,170,VALID,0,
2001-02-01, 02:39:00,VALID,915.224,VALID,0,VALID,99.2945,VALID,-0.0679233,VALID,17.8927,VALID,174,VALID,0,
2001-02-01, 02:40:00,VALID,915.224,VALID,0,VALID,99.2742,VALID,-0.0509425,VALID,17.8833,VALID,177,VALID,0,
2001-02-01, 02:41:00,VALID,915.221,VALID,0,VALID,99.2691,VALID,-0.0339617,VALID,17.8701,VALID,169,VALID,0,
2001-02-01, 02:42:00,VALID,915.214,VALID,0,VALID,99.2602,VALID,-0.101885,VALID,17.8639,VALID,162,VALID,0,
2001-02-01, 02:43:00,VALID,915.208,VALID,0,VALID,99.2564,VALID,-0.0849042,VALID,17.854,VALID,170,VALID,0,
2001-02-01, 02:44:00,VALID,915.183,VALID,0,VALID,99.2462,VALID,-0.0509425,VALID,17.8441,VALID,158,VALID,0,
2001-02-01, 02:45:00,VALID,915.179,VALID,0,VALID,99.2525,VALID,-0.0849042,VALID,17.8445,VALID,154,VALID,0,
2001-02-01, 02:46:00,VALID,915.174,VALID,0,VALID,99.2437,VALID,-0.0679233,VALID,17.8316,VALID,151,VALID,0,
2001-02-01, 02:47:00,VALID,915.16,VALID,0,VALID,99.2462,VALID,0,VALID,17.8346,VALID,138,VALID,0,
2001-02-01, 02:48:00,VALID,915.146,VALID,0,VALID,99.2233,VALID,0.0339617,VALID,17.827,VALID,138,VALID,0,
2001-02-01, 02:49:00,VALID,915.136,VALID,0,VALID,99.2347,VALID,0.0339617,VALID,17.8236,VALID,138,VALID,0,
2001-02-01, 02:50:00,VALID,915.134,VALID,0,VALID,99.2157,VALID,0.0169808,VALID,17.8104,VALID,123,VALID,0,
2001-02-01, 02:51:00,VALID,915.121,VALID,0,VALID,99.2195,VALID,0,VALID,17.8143,VALID,93,VALID,0,
2001-02-01, 02:52:00,VALID,915.123,VALID,0,VALID,99.2093,VALID,0.0339617,VALID,17.8203,VALID,88,VALID,0,
2001-02-01, 02:53:00,VALID,915.117,VALID,0,VALID,99.2042,VALID,0,VALID,17.8107,VALID,88,VALID,0,
2001-02-01, 02:54:00,VALID,915.106,VALID,0,VALID,99.1928,VALID,0.0679233,VALID,17.8005,VALID,88,VALID,0,
2001-02-01, 02:55:00,VALID,915.091,VALID,0,VALID,99.1839,VALID,0.0509425,VALID,17.8176,VALID,100,VALID,0,
2001-02-01, 02:56:00,VALID,915.091,VALID,0,VALID,99.1826,VALID,0.0679233,VALID,17.8171,VALID,110,VALID,0,
2001-02-01, 02:57:00,VALID,915.068,VALID,0,VALID,99.1801,VALID,0.0509425,VALID,17.8141,VALID,113,VALID,0,
2001-02-01, 02:58:00,VALID,915.062,VALID,0,VALID,99.1686,VALID,0.0339617,VALID,17.798,VALID,127,VALID,0,
2001-02-01, 02:59:00,VALID,915.05,VALID,0,VALID,99.1572,VALID,0.0509425,VALID,17.7911,VALID,127,VALID,0,
2001-02-01, 03:00:00,VALID,915.032,VALID,0,VALID,99.119,VALID,0.0509425,VALID,17.7818,VALID,128,VALID,0,
2001-02-01, 03:01:00,VALID,915.024,VALID,0,VALID,99.1114,VALID,0.0169808,VALID,17.7592,VALID,128,VALID,0,
2001-02-01, 03:02:00,VALID,915.018,VALID,0,VALID,99.1063,VALID,0.0339617,VALID,17.7461,VALID,128,VALID,0,
2001-02-01, 03:03:00,VALID,915.015,VALID,0,VALID,99.1101,VALID,0.0509425,VALID,17.7495,VALID,128,VALID,0,
2001-02-01, 03:04:00,VALID,915.013,VALID,0,VALID,99.0911,VALID,0.0679233,VALID,17.7364,VALID,128,VALID,0,
2001-02-01, 03:05:00,VALID,914.989,VALID,0,VALID,99.0733,VALID,0.0339617,VALID,17.7108,VALID,120,VALID,0,
2001-02-01, 03:06:00,VALID,914.988,VALID,0,VALID,99.0707,VALID,0.0339617,VALID,17.6946,VALID,110,VALID,0,
2001-02-01, 03:07:00,VALID,914.968,VALID,0,VALID,99.0707,VALID,-0.0679233,VALID,17.6662,VALID,110,VALID,0,
2001-02-01, 03:08:00,VALID,914.977,VALID,0,VALID,99.0898,VALID,-0.0509425,VALID,17.6671,VALID,110,VALID,0,
2001-02-01, 03:09:00,VALID,914.97,VALID,0,VALID,99.1216,VALID,-0.0679233,VALID,17.6602,VALID,106,VALID,0,
2001-02-01, 03:10:00,VALID,914.963,VALID,0,VALID,99.133,VALID,-0.0679233,VALID,17.6731,VALID,106,VALID,0,
2001-02-01, 03:11:00,VALID,914.961,VALID,0,VALID,99.1534,VALID,-0.0679233,VALID,17.6731,VALID,106,VALID,0,
2001-02-01, 03:12:00,VALID,914.948,VALID,0,VALID,99.1674,VALID,-0.0509425,VALID,17.6828,VALID,106,VALID,0,
2001-02-01, 03:13:00,VALID,914.937,VALID,0,VALID,99.1775,VALID,-0.0509425,VALID,17.6828,VALID,106,VALID,0,
2001-02-01, 03:14:00,VALID,914.918,VALID,0,VALID,99.1941,VALID,-0.0169808,VALID,17.6761,VALID,106,VALID,0,
2001-02-01, 03:15:00,VALID,914.914,VALID,0,VALID,99.1915,VALID,-0.0339617,VALID,17.6761,VALID,122,VALID,0,
2001-02-01, 03:16:00,VALID,914.896,VALID,0,VALID,99.1864,VALID,-0.0169808,VALID,17.6798,VALID,133,VALID,0,
2001-02-01, 03:17:00,VALID,914.894,VALID,0,VALID,99.175,VALID,-0.0339617,VALID,17.6699,VALID,133,VALID,0,
2001-02-01, 03:18:00,VALID,914.891,VALID,0,VALID,99.1546,VALID,-0.0339617,VALID,17.6538,VALID,133,VALID,0,
2001-02-01, 03:19:00,VALID,914.884,VALID,0,VALID,99.1597,VALID,-0.0169808,VALID,17.6342,VALID,133,VALID,0,
2001-02-01, 03:20:00,VALID,914.877,VALID,0,VALID,99.147,VALID,-0.0509425,VALID,17.6182,VALID,133,VALID,0,
2001-02-01, 03:21:00,VALID,914.873,VALID,0,VALID,99.133,VALID,-0.0509425,VALID,17.609,VALID,133,VALID,0,
2001-02-01, 03:22:00,VALID,914.87,VALID,0,VALID,99.1279,VALID,0.0509425,VALID,17.5917,VALID,133,VALID,0,
2001-02-01, 03:23:00,VALID,914.857,VALID,0,VALID,99.1076,VALID,0.0679233,VALID,17.5655,VALID,133,VALID,0,
2001-02-01, 03:24:00,VALID,914.864,VALID,0,VALID,99.1076,VALID,0.0679233,VALID,17.5493,VALID,133,VALID,0,
2001-02-01, 03:25:00,VALID,914.851,VALID,0,VALID,99.1241,VALID,0.0339617,VALID,17.5396,VALID,144,VALID,0,
2001-02-01, 03:26:00,VALID,914.849,VALID,0,VALID,99.1445,VALID,0.0169808,VALID,17.5362,VALID,170,VALID,0,
2001-02-01, 03:27:00,VALID,914.846,VALID,0,VALID,99.1559,VALID,0.0339617,VALID,17.5332,VALID,185,VALID,0,
2001-02-01, 03:28:00,VALID,914.847,VALID,0,VALID,99.1635,VALID,0.0339617,VALID,17.5269,VALID,185,VALID,0,
2001-02-01, 03:29:00,VALID,914.843,VALID,0,VALID,99.1534,VALID,0.0509425,VALID,17.5168,VALID,195,VALID,0,
2001-02-01, 03:30:00,VALID,914.854,VALID,0,VALID,99.1534,VALID,0.0509425,VALID,17.5011,VALID,203,VALID,0,
2001-02-01, 03:31:00,VALID,914.85,VALID,0,VALID,99.1559,VALID,0.0509425,VALID,17.4912,VALID,202,VALID,0,
2001-02-01, 03:32:00,VALID,914.845,VALID,0,VALID,99.1674,VALID,0.0679233,VALID,17.4944,VALID,204,VALID,0,
2001-02-01, 03:33:00,VALID,914.845,VALID,0,VALID,99.1661,VALID,0.0679233,VALID,17.4813,VALID,203,VALID,0,
2001-02-01, 03:34:00,VALID,914.837,VALID,0,VALID,99.1826,VALID,0,VALID,17.4949,VALID,198,VALID,0,
2001-02-01, 03:35:00,VALID,914.825,VALID,0,VALID,99.1928,VALID,0.0339617,VALID,17.488,VALID,195,VALID,0,
2001-02-01, 03:36:00,VALID,914.818,VALID,0,VALID,99.1496,VALID,0,VALID,17.4949,VALID,189,VALID,0,
2001-02-01, 03:37:00,VALID,914.814,VALID,0,VALID,99.1178,VALID,-0.0679233,VALID,17.4895,VALID,184,VALID,0,
2001-02-01, 03:38:00,VALID,914.814,VALID,0,VALID,99.0974,VALID,-0.101885,VALID,17.49,VALID,182,VALID,0,
2001-02-01, 03:39:00,VALID,914.816,VALID,0,VALID,99.1318,VALID,-0.0849042,VALID,17.4997,VALID,190,VALID,0,
2001-02-01, 03:40:00,VALID,914.823,VALID,0,VALID,99.1406,VALID,-0.101885,VALID,17.5255,VALID,208,VALID,0,